Погода в Бордж Баджи Мохтар

Алжир     21°19′27″N   0°57′06″E
темп.,
°C
ветер,
м/с
пор.,
м/с
влажн.,
%
обл.,
%
осадки,
мм/ч
давл.,
гПа
погр.,
м
20 июня, вс
вс2001:00+34всв4470 0.0 100923
04:00+31ююз2295 0.0 100911
07:00+30зсз22105 0.0 101012
10:00+37сз22130 0.0 1011573
13:00+42ююз3575 0.0 10094304
16:00+43ю3365 0.0 10074927
19:00+41зюз2270 0.0 100611
22:00+36с11100 0.0 100811
21 июня, пн
пн2101:00+36в3390 0.0 100812
04:00+33в5693 0.0 100751
07:00+32юв45101 0.0 100848
10:00+41ююв6663 0.0 1009905
13:00+44юв45511 0.0 10075395
16:00+45в4545 0.0 10055621
19:00+42св5643 0.0 100575
22:00+37всв5565 0.0 100737
22 июня, вт
вт2201:00+35ююв55861 0.0 100746
04:00+31ююз713360 0.0 1007302
07:00+30ю511391 0.0 1009250
10:00+37юз67245 0.0 1009615
13:00+42зюз24114 0.0 10072931
16:00+44в2581 0.0 10055148
19:00+42св4480 0.0 100555
22:00+38св441114 0.0 100628
23 июня, ср
ср2301:00+36всв44122 0.0 100625
04:00+34вюв34123 0.0 100517
07:00+32ю58115 0.0 1007104
10:00+37ююз23146 0.0 1008681
13:00+42ю4485 0.0 10061874
16:00+43ю2380 0.0 10044756
19:00+42вюв2280 0.0 100412
22:00+38всв33100 0.0 100611
24 июня, чт
чт2401:00+36в5680 0.0 100650
04:00+34ююв5680 0.0 100650
07:00+32ю46110 0.0 100867
10:00+38зюз66170 0.0 1009910
13:00+43юз55120 0.0 10082557
16:00+43ююз2598 0.0 10065220
19:00+41юв681198 0.0 1006366
22:00+37юз691686 0.0 1008132